Theta_e
322 322 321 320 321 321 320 318 318 319 319 319 320 320 320 321 320 322 322 322 323 324 324 325 326 326 326 327 326 325 324 324 323 324 323 322 321 321 319 318 317 317
320 319 317 319 318 317 319 319 319 318 319 319 320 320 319 318 319 320 320 321 321 322 323 323 325 325 326 325 324 324 323 323 323 323 323 321 321 320 320 319 317 317
318 318 318 319 320 319 318 317 318 318 319 319 318 318 318 317 318 318 319 320 320 320 321 321 322 323 324 324 323 321 320 321 321 321 319 320 320 319 318 317 316 316
317 318 320 319 319 318 317 316 316 316 315 315 315 316 317 317 317 317 317 314 320 320 320 321 321 322 322 322 321 321 322 322 322 321 320 319 318 319 318 318 317 315
316 316 316 317 316 316 315 316 315 314 314 316 313 311 312 313 314 315 316 317 318 319 319 321 322 322 321 321 319 318 317 318 318 318 318 318 317 317 319 315 312 312
308 311 312 314 312 312 312 313 313 312 312 307 311 307 310 312 312 314 314 314 314 317 318 319 320 320 320 321 320 319 318 311 310 312 312 312 312 307 309 309 306 304
305 305 305 305 306 305 306 305 305 303 306 307 303 306 308 309 311 313 315 315 316 315 317 317 317 318 317 316 316 315 314 313 311 308 310 311 310 308 305 306 307 307
303 302 303 303 305 305 306 305 304 303 303 300 302 302 300 308 310 312 310 313 314 315 315 315 315 318 317 315 313 311 309 310 310 309 309 308 302 304 303 304 304 305
297 298 298 299 301 300 299 299 298 297 297 299 299 298 298 301 303 304 308 308 308 308 310 309 310 307 306 307 308 309 310 309 307 308 308 308 306 306 306 304 302 302
294 290 295 295 298 296 298 297 298 298 297 300 300 300 303 301 302 304 303 304 304 304 303 304 304 303 304 304 308 308 309 310 308 307 307 307 307 307 305 302 302 301
288 288 291 292 295 294 296 294 295 295 295 298 298 301 301 300 300 299 302 303 304 304 305 303 303 304 304 302 302 302 303 305 306 305 304 305 305 305 300 301 301 301
289 289 291 292 293 293 293 292 292 294 295 294 297 302 298 297 298 296 299 300 300 300 300 301 300 300 301 301 301 300 300 300 300 301 301 302 301 300 300 300 301 301
290 292 292 292 292 293 293 295 296 294 296 298 293 296 297 296 294 295 293 296 296 296 297 298 299 298 298 298 298 297 298 298 297 296 296 295 295 296 295 295 295 295
294 293 294 294 294 295 295 295 295 295 294 292 292 297 295 295 296 296 293 293 294 295 295 295 295 295 295 295 295 296 295 295 294 295 294 293 293 293 293 293 293 292
294 295 295 296 295 296 294 294 293 292 290 290 292 291 291 291 291 292 292 293 292 292 293 293 294 295 295 295 295 295 295 295 295 293 292 292 292 291 291 291 291 291
294 294 295 293 293 293 292 290 289 288 289 289 290 289 289 289 290 290 291 292 292 291 291 292 292 294 292 292 294 294 294 294 293 291 291 291 291 291 290 289 290 289
295 294 292 292 293 291 289 289 289 288 288 288 288 288 289 289 289 290 289 289 290 290 290 290 290 292 291 294 294 295 294 293 293 291 291 290 290 291 291 289 288 288
295 293 292 291 290 290 289 288 288 288 288 288 288 288 288 287 288 288 288 289 289 289 289 289 289 289 293 293 294 294 293 293 291 291 290 290 289 290 289 288 288 287
293 292 292 290 290 289 288 288 288 288 288 288 288 287 287 288 288 288 288 288 289 289 289 288 288 290 292 293 293 294 294 292 289 290 290 288 288 288 288 287 286 286
292 291 291 290 289 288 288 288 288 289 288 287 287 288 288 288 288 288 288 288 289 289 289 289 289 289 292 292 292 293 293 292 289 289 289 288 288 287 286 286 286 286
292 291 290 289 288 288 288 288 288 288 287 287 288 288 288 288 288 287 288 288 288 287 288 288 288 289 291 292 292 293 293 292 287 287 286 286 286 286 286 286 286 286
292 291 290 289 288 288 288 288 287 287 287 287 287 287 286 287 287 287 287 287 287 287 287 287 286 289 290 291 292 292 293 288 286 286 285 285 285 285 285 285 285 285
292 291 290 289 288 288 288 288 287 287 287 287 287 287 286 287 286 286 286 286 286 286 286 286 286 287 289 290 291 292 291 286 286 286 285 284 284 284 284 284 283 283
292 291 289 289 288 288 288 288 288 288 287 287 287 287 286 286 286 286 286 286 286 286 286 286 286 286 288 290 290 291 288 285 284 283 281 280 280 281 281 281 281 283
291 291 290 289 288 288 288 287 287 287 287 287 287 287 286 286 286 286 285 285 285 285 285 286 286 285 287 289 290 291 289 286 285 284 283 282 279 281 282 282 282 283
291 290 289 289 288 288 288 288 287 287 286 286 286 287 286 286 286 286 285 285 285 285 285 285 285 285 285 289 290 290 290 285 284 282 281 280 279 281 279 280 280 281
Wind_Speed
10 8 9 9 9 8 8 8 7 8 8 7 9 8 8 8 7 9 10 9 9 10 9 9 9 8 9 9 10 9 9 10 9 8 10 11 12 13 12 10 10 10
9 8 7 7 7 6 7 7 8 9 9 9 8 7 6 6 8 8 8 8 9 10 9 8 9 9 9 9 9 9 8 8 10 9 11 12 10 11 14 15 12 11
7 7 8 10 11 9 9 7 8 8 8 9 7 6 7 7 7 7 7 8 8 8 9 9 8 9 8 8 7 7 6 6 8 6 6 7 8 9 10 9 10 13
8 10 10 10 9 8 7 7 7 6 6 6 6 7 7 6 6 6 6 7 7 8 8 8 9 8 8 8 7 8 10 10 10 9 9 9 8 8 8 9 10 9
9 8 7 7 7 6 6 7 8 7 7 7 6 5 5 6 6 6 7 7 8 8 8 9 9 9 9 8 7 7 6 7 7 7 8 10 9 10 12 9 7 10
5 6 6 6 5 6 6 7 7 6 6 5 7 5 5 6 6 7 7 7 7 8 8 8 9 9 9 10 8 7 6 5 5 6 7 7 7 5 4 5 5 4
6 5 4 3 4 4 5 5 4 4 5 5 3 5 5 5 6 7 7 7 8 8 8 8 8 8 7 6 8 8 7 7 6 5 7 8 8 8 6 6 8 8
4 3 4 4 5 3 4 3 2 3 2 3 4 3 3 6 6 6 5 6 6 7 7 8 7 8 9 9 7 6 6 5 5 5 6 6 4 5 4 5 6 8
4 4 4 4 5 4 4 3 2 2 2 2 2 2 2 3 4 4 5 5 4 5 5 5 5 4 3 3 4 5 6 6 6 6 7 8 7 8 9 7 6 7
5 3 4 3 4 3 3 2 2 1 1 2 2 1 1 1 1 2 2 2 3 3 4 4 4 4 4 4 5 4 5 7 6 6 7 8 8 8 7 6 8 7
4 3 3 3 3 3 3 3 3 2 2 1 1 1 1 1 0 1 0 0 2 3 3 3 3 3 3 3 3 3 3 4 4 4 5 5 6 7 6 7 7 8
3 3 3 3 3 3 4 3 2 2 2 1 0 0 0 1 1 1 0 1 1 3 3 3 3 3 2 3 3 3 3 4 4 4 5 5 5 4 4 5 7 8
4 4 4 4 4 3 2 1 1 0 0 0 1 1 1 0 0 0 0 1 1 1 2 2 2 1 2 3 3 3 4 4 4 4 5 4 4 4 4 4 5 4
5 4 4 3 2 1 1 1 0 0 1 1 1 0 0 0 1 2 1 0 0 1 1 1 1 1 3 3 3 3 3 4 4 4 4 4 4 4 4 4 4 3
4 3 2 1 0 1 1 3 2 1 2 2 2 2 1 2 2 2 2 1 0 0 0 0 1 2 1 1 2 3 2 3 3 3 4 4 4 4 3 3 3 4
4 4 3 4 4 4 4 3 3 3 2 2 1 1 1 1 1 1 1 1 1 1 1 1 1 2 3 3 3 3 3 3 3 4 4 4 4 5 4 4 4 4
5 5 4 5 5 4 4 4 3 3 3 3 2 2 1 1 1 1 1 0 1 1 0 0 0 1 2 2 4 5 4 4 5 5 4 4 4 5 6 5 5 5
6 6 5 5 4 4 5 4 4 4 4 3 3 3 3 2 2 2 1 1 1 0 1 1 1 3 3 4 5 6 7 5 4 4 4 4 4 5 5 5 5 4
6 7 6 5 5 5 4 5 4 4 4 4 5 3 3 4 3 2 2 2 2 2 1 1 1 2 3 4 5 6 7 6 3 4 5 4 4 5 5 4 4 4
7 7 6 6 5 5 5 5 5 6 4 3 3 4 4 4 3 3 3 3 3 2 1 0 1 2 2 3 4 5 5 4 2 3 3 4 5 4 3 4 5 6
8 7 7 6 6 6 6 6 6 5 4 4 5 4 4 5 4 4 3 2 1 1 2 1 1 2 3 4 4 4 4 3 2 2 2 3 3 3 4 5 5 4
9 8 7 7 7 7 7 6 5 6 6 4 3 2 2 2 1 1 2 2 1 1 2 1 1 2 3 3 4 4 5 3 2 2 2 3 3 2 2 2 1 2
9 9 8 8 8 8 7 7 6 6 4 4 4 4 4 4 4 3 2 2 2 2 2 2 2 3 3 3 3 4 4 2 1 1 1 2 3 2 2 1 1 2
9 10 10 10 9 9 9 7 6 5 6 5 6 6 5 5 3 2 2 2 2 2 3 3 2 3 3 3 3 4 5 4 3 2 1 2 3 2 1 2 3 5
10 10 10 10 10 9 8 8 8 7 5 5 4 5 5 4 3 3 2 2 2 2 3 3 2 3 3 4 5 5 5 4 4 4 4 4 3 3 3 3 3 4
9 10 9 10 10 8 7 7 6 6 6 7 5 4 4 4 3 2 3 2 1 1 2 3 2 3 3 4 4 5 6 5 4 5 5 5 4 4 3 3 4 4
Wind_Direction
219 212 219 215 222 218 213 211 212 217 222 219 223 225 221 225 215 216 220 221 221 226 227 227 227 229 229 225 218 219 221 224 227 230 225 219 218 216 217 216 216 212
216 212 215 215 224 218 220 212 215 214 223 221 223 226 223 216 220 215 216 215 215 221 223 224 222 223 223 222 217 218 225 237 241 226 216 214 220 219 223 217 210 211
208 207 209 215 219 218 216 213 217 218 222 224 223 220 225 216 221 214 214 210 213 216 217 217 218 218 219 217 212 213 219 232 243 236 238 232 225 225 227 210 213 215
212 210 212 217 216 218 209 212 220 222 224 230 222 219 217 222 216 216 214 213 214 217 218 217 219 220 217 218 215 219 224 231 235 231 231 236 235 230 227 223 225 216
209 210 212 212 211 210 202 209 216 215 218 222 225 217 214 218 217 216 215 215 214 219 218 219 220 221 220 224 225 233 234 234 227 226 231 232 228 216 221 213 199 207
211 207 208 207 202 195 204 208 214 215 219 222 220 210 212 211 211 216 216 218 219 220 220 220 219 219 215 221 224 236 245 247 227 208 215 234 247 251 236 218 202 201
205 196 183 159 166 181 192 203 208 202 209 216 200 216 204 204 207 213 214 215 216 217 216 218 219 220 213 219 229 229 222 222 236 236 234 232 218 220 209 199 202 207
157 141 143 141 138 137 139 145 148 168 174 157 185 220 192 200 204 210 212 214 217 221 220 223 224 219 219 220 219 225 234 233 238 235 237 237 243 268 260 236 211 211
141 144 137 139 134 140 139 152 157 170 177 168 202 238 239 204 201 201 207 205 218 236 241 238 239 254 275 239 232 228 240 243 226 224 228 234 224 222 219 214 216 215
142 141 125 140 148 158 142 141 132 115 171 173 191 206 203 264 206 195 188 193 209 233 242 242 254 252 254 237 236 238 245 247 240 227 228 230 226 227 219 200 212 214
141 132 132 140 146 165 159 159 133 118 97 122 137 151 189 159 18 33 91 325 235 248 261 266 263 262 263 271 273 269 265 269 265 257 252 247 239 231 214 205 209 214
171 141 141 146 156 161 160 148 113 89 88 63 94 126 48 40 72 62 119 259 247 242 237 236 234 238 243 258 273 272 258 258 256 248 242 239 243 242 228 218 217 220
175 164 154 154 152 151 144 114 64 77 63 44 63 90 93 130 164 145 162 181 214 205 235 247 278 272 252 258 259 254 243 243 245 238 237 234 231 221 215 211 219 225
177 161 148 137 128 99 67 50 289 259 161 140 140 130 84 41 328 320 307 163 256 278 319 346 304 275 250 248 246 246 240 244 241 239 240 242 235 229 219 217 214 206
162 146 119 134 148 150 172 196 171 147 144 153 160 157 163 185 186 190 194 221 303 70 316 206 209 245 290 296 286 279 236 243 239 233 231 235 237 227 218 210 206 199
157 149 174 184 179 178 178 167 153 150 126 109 95 102 109 118 118 69 51 17 346 342 334 341 352 6 348 321 266 245 229 233 233 228 221 224 224 226 225 214 210 195
166 174 170 169 174 166 160 157 157 149 136 130 121 107 106 96 113 124 127 128 159 205 270 27 240 211 246 241 232 228 218 210 213 220 206 211 218 222 229 222 216 204
168 170 168 168 160 171 167 160 148 148 153 152 145 140 143 128 114 148 156 151 146 128 189 220 244 247 247 237 225 220 207 207 202 206 200 210 215 218 226 216 210 197
165 168 168 165 178 168 161 153 157 159 159 158 172 171 142 137 164 148 159 176 164 181 222 234 225 256 252 241 239 230 216 199 196 193 191 207 211 216 214 202 181 191
167 168 167 174 167 161 159 162 171 183 179 173 147 147 156 157 164 173 189 187 184 182 210 218 228 283 268 266 263 251 232 199 199 190 202 205 209 207 201 195 195 202
170 167 170 167 167 164 168 176 183 171 164 173 168 170 170 180 181 188 204 178 163 170 178 200 211 242 230 245 255 250 232 180 160 179 203 224 231 215 208 208 211 213
170 168 167 165 168 169 174 182 179 177 172 173 165 177 186 148 197 171 177 175 171 163 174 206 266 241 225 232 238 226 199 155 167 192 227 242 253 262 265 264 246 217
171 166 168 169 171 173 182 182 178 176 179 164 163 175 174 189 189 187 166 143 157 194 194 208 230 242 226 221 214 216 157 137 170 198 245 275 281 284 287 322 309 245
171 166 171 174 174 181 183 184 180 173 175 174 171 173 188 194 180 167 151 143 162 203 218 205 230 243 228 216 198 192 159 166 163 161 231 256 270 283 276 236 231 221
171 170 175 176 179 183 180 178 179 177 170 170 178 178 178 164 163 169 160 138 165 210 229 226 241 248 230 217 201 199 170 156 164 169 200 228 225 242 215 219 224 222
174 172 176 177 180 179 176 177 168 160 168 172 178 173 160 157 164 166 156 159 156 199 226 236 248 268 262 230 211 210 180 163 166 175 210 225 221 216 229 235 222 227